Temp
5 5 5 5 4 4 3 3 3 2 2 1 1 1 0 1 1 0 -0 -1 -1 -3 -2 -3 -3 -4 -4 -4 -4 -4 -5 -5 -5 -5 -6 -6 -7 -8 -8 -9 -9 -9 -10
5 5 5 4 4 3 3 2 2 1 1 1 1 0 1 1 0 0 -0 -2 -2 -3 -2 -3 -3 -4 -4 -4 -4 -5 -5 -6 -6 -6 -6 -7 -8 -8 -9 -9 -9 -10 -10
5 5 5 5 4 3 3 3 2 0 1 1 1 1 1 1 0 -0 -0 -2 -3 -2 -3 -3 -3 -4 -4 -5 -5 -5 -6 -6 -7 -7 -7 -8 -9 -9 -9 -10 -10 -11 -11
5 5 5 5 4 4 3 2 1 1 1 2 1 1 1 0 -0 -1 -1 -2 -2 -3 -4 -3 -4 -5 -5 -6 -6 -6 -7 -7 -8 -8 -8 -8 -9 -9 -10 -10 -10 -10 -11
5 5 4 4 4 3 2 2 2 2 2 1 1 1 1 0 -1 -1 -2 -2 -3 -3 -4 -4 -5 -6 -6 -6 -6 -7 -8 -8 -8 -8 -9 -9 -9 -10 -10 -10 -11 -11 -11
5 4 4 4 3 3 2 3 2 2 2 1 1 1 1 0 -1 -1 -2 -2 -3 -4 -4 -5 -6 -6 -6 -7 -7 -8 -8 -9 -9 -9 -10 -10 -10 -10 -11 -11 -11 -11 -11
4 3 3 3 3 3 3 3 2 2 1 1 1 0 -1 -0 -1 -2 -2 -3 -4 -5 -5 -6 -7 -7 -7 -8 -8 -9 -9 -9 -10 -10 -10 -10 -10 -11 -11 -11 -12 -12 -12
3 3 3 2 2 2 2 2 2 2 2 1 0 0 -0 -1 -2 -3 -4 -5 -5 -6 -6 -7 -8 -8 -8 -9 -9 -9 -9 -10 -10 -10 -10 -11 -11 -12 -12 -12 -12 -12 -12
3 3 3 3 3 3 3 3 2 2 1 0 -0 -1 -2 -2 -3 -4 -4 -6 -6 -6 -7 -8 -9 -10 -9 -9 -9 -9 -9 -10 -10 -11 -11 -11 -12 -12 -13 -13 -13 -14 -13
3 3 3 3 3 3 3 3 2 2 -1 -2 -2 -3 -2 -3 -4 -4 -5 -6 -6 -7 -9 -10 -11 -11 -11 -11 -10 -10 -10 -10 -11 -11 -12 -12 -12 -13 -13 -14 -14 -15 -15
3 3 3 2 2 2 2 2 1 -1 -2 -3 -4 -3 -3 -4 -5 -5 -6 -7 -9 -11 -11 -11 -12 -12 -12 -11 -11 -11 -11 -11 -11 -12 -12 -12 -13 -13 -14 -14 -15 -16 -17
3 2 2 2 2 1 1 0 -1 -3 -3 -3 -3 -4 -6 -5 -6 -6 -7 -9 -11 -12 -13 -13 -13 -13 -12 -13 -13 -13 -13 -12 -12 -12 -13 -13 -14 -14 -14 -15 -16 -17 -17
2 2 2 1 1 1 -0 -1 -3 -4 -3 -4 -6 -5 -5 -6 -6 -7 -9 -13 -13 -12 -13 -14 -14 -14 -14 -14 -13 -13 -13 -13 -13 -14 -14 -14 -14 -15 -15 -16 -16 -17 -17
2 1 1 1 0 -1 -2 -4 -5 -4 -4 -5 -5 -6 -6 -7 -8 -11 -12 -12 -11 -11 -12 -14 -14 -14 -14 -14 -14 -14 -14 -14 -15 -15 -15 -15 -15 -16 -16 -17 -17 -18 -18
1 1 0 -0 -2 -3 -5 -5 -5 -5 -5 -6 -6 -7 -8 -9 -9 -9 -10 -11 -11 -12 -13 -14 -14 -14 -14 -15 -15 -15 -15 -15 -16 -16 -16 -17 -17 -17 -17 -18 -19 -18 -18
-1 -1 -2 -3 -5 -5 -5 -5 -5 -5 -6 -8 -9 -9 -8 -9 -9 -10 -11 -12 -13 -13 -14 -14 -14 -14 -15 -15 -16 -16 -16 -16 -17 -17 -17 -18 -18 -18 -18 -19 -19 -19 -18
-3 -4 -4 -5 -6 -6 -6 -7 -8 -8 -8 -8 -8 -9 -10 -11 -12 -12 -13 -14 -14 -14 -14 -15 -15 -15 -16 -17 -17 -17 -17 -17 -18 -18 -19 -19 -19 -19 -20 -20 -20 -19 -19
-6 -6 -7 -7 -8 -8 -8 -8 -9 -9 -9 -10 -10 -11 -11 -12 -12 -13 -13 -13 -14 -15 -15 -15 -16 -17 -17 -18 -18 -18 -18 -19 -19 -20 -20 -20 -21 -21 -21 -21 -21 -20 -20
-7 -7 -8 -8 -8 -9 -9 -9 -9 -10 -10 -11 -12 -12 -13 -13 -14 -14 -14 -15 -15 -16 -16 -17 -18 -18 -19 -19 -19 -20 -20 -20 -21 -21 -21 -22 -22 -22 -22 -22 -21 -21 -20
-8 -8 -9 -9 -9 -10 -10 -10 -11 -12 -12 -12 -13 -14 -14 -14 -15 -15 -16 -16 -17 -18 -18 -19 -20 -20 -20 -21 -21 -21 -22 -22 -22 -22 -23 -23 -23 -23 -23 -22 -22 -22 -21
-9 -9 -10 -10 -10 -11 -11 -12 -12 -13 -13 -14 -14 -15 -15 -16 -17 -17 -18 -18 -19 -19 -20 -20 -21 -21 -22 -22 -22 -22 -23 -23 -23 -23 -23 -23 -23 -23 -23 -23 -22 -22 -21
-10 -10 -11 -11 -12 -12 -13 -13 -14 -14 -15 -15 -16 -17 -17 -18 -19 -19 -20 -20 -21 -21 -22 -22 -22 -23 -23 -23 -23 -23 -24 -24 -24 -24 -24 -24 -24 -24 -23 -23 -23 -22 -22
-11 -11 -12 -12 -13 -13 -14 -14 -15 -16 -17 -17 -18 -19 -19 -20 -21 -21 -21 -22 -22 -22 -23 -23 -23 -24 -24 -24 -24 -24 -24 -24 -25 -25 -24 -24 -24 -24 -24 -23 -23 -22 -22
-12 -12 -13 -13 -14 -15 -15 -16 -17 -18 -18 -19 -20 -21 -21 -22 -22 -23 -23 -23 -23 -24 -24 -24 -24 -24 -25 -25 -25 -25 -25 -25 -25 -25 -25 -25 -24 -24 -24 -23 -23 -23 -22
-13 -14 -14 -15 -15 -16 -16 -17 -18 -19 -20 -21 -22 -22 -23 -24 -24 -24 -25 -25 -25 -25 -25 -25 -25 -25 -25 -26 -26 -26 -26 -26 -26 -25 -25 -25 -25 -25 -24 -23 -23 -23 -22
-14 -15 -15 -16 -17 -17 -18 -19 -20 -21 -22 -23 -24 -25 -25 -25 -26 -26 -26 -26 -26 -26 -26 -26 -26 -26 -26 -26 -26 -26 -26 -26 -26 -26 -26 -25 -25 -25 -24 -24 -23 -23 -22
Height
3080 3082 3083 3084 3085 3086 3086 3087 3087 3088 3088 3090 3091 3091 3091 3093 3093 3091 3090 3089 3088 3086 3086 3083 3082 3081 3079 3078 3075 3073 3070 3067 3062 3060 3059 3057 3052 3048 3045 3039 3035 3030 3025
3076 3077 3078 3078 3078 3078 3079 3079 3078 3079 3081 3083 3083 3083 3085 3085 3084 3083 3081 3081 3080 3078 3078 3076 3075 3072 3070 3068 3065 3062 3059 3057 3053 3049 3048 3045 3041 3037 3033 3028 3023 3017 3012
3071 3072 3072 3071 3070 3070 3070 3069 3069 3066 3066 3073 3075 3076 3078 3078 3077 3074 3072 3072 3071 3069 3070 3067 3065 3062 3061 3057 3054 3051 3049 3047 3044 3038 3035 3032 3028 3025 3020 3016 3012 3006 3001
3065 3065 3065 3064 3063 3063 3061 3062 3059 3061 3067 3065 3068 3069 3069 3069 3067 3065 3064 3063 3063 3060 3060 3057 3055 3053 3050 3047 3044 3041 3039 3036 3033 3029 3025 3021 3018 3015 3009 3005 3000 2995 2990
3058 3057 3058 3058 3058 3058 3056 3052 3057 3057 3059 3058 3059 3060 3059 3059 3058 3055 3054 3053 3053 3051 3048 3048 3045 3042 3039 3036 3034 3032 3029 3027 3024 3019 3015 3010 3007 3003 2998 2993 2986 2982 2977
3052 3052 3052 3050 3051 3052 3052 3051 3051 3051 3050 3050 3051 3051 3050 3049 3047 3045 3047 3045 3044 3042 3039 3037 3034 3032 3029 3026 3023 3020 3018 3015 3012 3007 3002 2998 2994 2990 2985 2979 2972 2966 2961
3045 3045 3045 3045 3045 3045 3044 3044 3043 3042 3042 3042 3042 3042 3041 3040 3038 3037 3036 3034 3033 3030 3028 3026 3024 3021 3019 3016 3013 3010 3007 3004 2999 2995 2990 2986 2981 2977 2971 2966 2960 2954 2948
3039 3039 3039 3039 3038 3037 3036 3035 3035 3034 3033 3032 3032 3032 3030 3027 3030 3029 3026 3024 3022 3020 3018 3016 3014 3012 3009 3006 3003 3000 2997 2993 2989 2983 2979 2975 2970 2966 2959 2953 2948 2942 2937
3033 3033 3032 3031 3030 3029 3027 3027 3026 3024 3024 3025 3024 3023 3024 3022 3021 3019 3016 3015 3014 3011 3007 3005 3003 3001 2998 2994 2991 2988 2985 2981 2976 2971 2967 2963 2959 2953 2947 2940 2935 2928 2924
3025 3025 3025 3024 3023 3021 3020 3018 3017 3015 3016 3017 3016 3016 3013 3013 3011 3009 3008 3006 3003 3000 2997 2994 2991 2989 2985 2982 2978 2975 2971 2967 2963 2960 2956 2951 2946 2941 2935 2928 2922 2917 2912
3019 3019 3018 3017 3015 3014 3011 3010 3008 3008 3010 3009 3008 3006 3005 3004 3002 3000 2996 2993 2990 2988 2986 2982 2979 2976 2972 2969 2965 2962 2958 2954 2949 2945 2940 2936 2932 2927 2923 2917 2911 2906 2902
3012 3011 3010 3009 3007 3006 3004 3002 3001 3000 3001 3001 3000 2998 2996 2994 2991 2987 2983 2980 2978 2975 2972 2969 2966 2964 2961 2957 2953 2949 2945 2940 2935 2930 2926 2922 2918 2914 2910 2906 2901 2897 2895
3005 3003 3002 3000 2999 2997 2996 2996 2996 2995 2994 2992 2990 2987 2984 2980 2977 2973 2970 2968 2966 2962 2960 2957 2954 2951 2948 2944 2940 2935 2930 2926 2921 2917 2913 2909 2905 2901 2897 2894 2891 2888 2886
2997 2996 2994 2992 2991 2989 2989 2988 2988 2986 2982 2980 2977 2973 2970 2967 2964 2960 2958 2956 2954 2950 2947 2944 2941 2937 2935 2931 2926 2921 2916 2911 2907 2902 2899 2895 2892 2888 2885 2881 2879 2879 2877
2988 2986 2985 2983 2982 2981 2980 2979 2977 2974 2971 2967 2963 2960 2957 2955 2953 2952 2949 2945 2941 2937 2934 2931 2928 2925 2921 2917 2913 2908 2903 2898 2893 2889 2885 2881 2878 2874 2872 2870 2869 2868 2867
2980 2978 2976 2975 2974 2973 2970 2969 2966 2962 2959 2958 2958 2956 2953 2948 2944 2940 2936 2932 2928 2925 2922 2919 2915 2911 2907 2903 2899 2895 2890 2885 2881 2876 2872 2868 2864 2862 2860 2859 2857 2858 2857
2971 2969 2969 2968 2967 2967 2965 2963 2961 2958 2955 2952 2948 2944 2940 2936 2932 2929 2925 2922 2917 2913 2909 2905 2901 2897 2893 2889 2885 2881 2876 2871 2867 2862 2858 2855 2852 2850 2848 2846 2845 2846 2847
2964 2962 2961 2960 2959 2957 2955 2953 2951 2948 2945 2941 2936 2932 2928 2925 2921 2917 2914 2910 2905 2900 2896 2892 2888 2884 2880 2876 2871 2866 2862 2858 2853 2849 2846 2843 2840 2838 2837 2836 2835 2835 2837
2957 2954 2953 2951 2949 2947 2945 2943 2940 2936 2932 2929 2925 2921 2917 2912 2909 2904 2900 2896 2892 2887 2882 2878 2874 2870 2866 2861 2857 2853 2848 2844 2841 2838 2835 2832 2830 2828 2827 2826 2826 2826 2828
2948 2947 2945 2943 2941 2938 2936 2932 2929 2925 2921 2917 2913 2909 2905 2900 2895 2891 2886 2882 2877 2873 2868 2864 2859 2855 2851 2847 2843 2839 2835 2832 2829 2826 2824 2822 2820 2819 2818 2818 2817 2817 2820
2942 2940 2938 2936 2933 2930 2926 2923 2919 2915 2911 2906 2902 2897 2892 2887 2881 2876 2871 2867 2863 2858 2854 2850 2846 2841 2837 2833 2829 2826 2823 2821 2818 2816 2814 2812 2811 2810 2809 2809 2810 2810 2812
2936 2933 2930 2927 2924 2920 2916 2912 2907 2903 2898 2893 2887 2882 2877 2872 2867 2862 2857 2852 2848 2844 2840 2836 2832 2828 2824 2821 2818 2815 2813 2810 2808 2806 2805 2804 2803 2802 2801 2801 2802 2803 2805
2929 2925 2922 2918 2914 2910 2905 2900 2895 2890 2884 2878 2873 2868 2862 2857 2852 2847 2843 2838 2834 2831 2827 2823 2820 2816 2813 2810 2808 2805 2803 2801 2799 2797 2796 2795 2794 2793 2793 2794 2795 2796 2799
2921 2917 2912 2908 2903 2898 2893 2888 2882 2876 2870 2864 2858 2853 2848 2843 2838 2833 2829 2825 2822 2818 2815 2811 2808 2806 2803 2801 2798 2795 2793 2792 2790 2789 2788 2787 2787 2786 2786 2787 2788 2790 2793
2912 2907 2902 2897 2892 2886 2880 2874 2867 2861 2855 2849 2844 2839 2834 2829 2824 2821 2817 2813 2810 2807 2804 2801 2799 2796 2793 2791 2789 2787 2786 2784 2782 2781 2780 2779 2779 2778 2779 2780 2782 2785 2788
2902 2897 2891 2885 2879 2872 2866 2859 2853 2847 2841 2835 2830 2826 2822 2817 2813 2810 2807 2804 2801 2798 2795 2792 2789 2787 2785 2783 2781 2779 2778 2777 2775 2773 2772 2772 2772 2772 2772 2774 2776 2779 2783
Wind_Speed
16 20 23 25 26 26 28 29 27 27 27 29 29 28 23 25 25 24 22 20 20 21 29 26 27 29 31 36 36 37 38 39 41 39 39 37 38 38 38 40 42 45 46
17 18 18 21 26 29 30 35 37 34 29 26 28 29 28 27 25 25 24 22 28 26 30 31 37 32 32 35 35 38 38 37 39 41 39 39 40 39 39 41 44 46 49
19 20 22 24 25 26 31 37 40 29 16 26 28 28 26 28 30 32 31 21 28 34 32 39 35 33 33 35 37 38 38 37 38 40 42 42 42 41 43 44 46 48 50
21 22 23 23 22 26 30 33 35 17 20 21 26 26 29 30 31 31 32 27 32 36 39 37 34 33 35 36 37 37 37 38 38 40 43 44 44 43 45 46 49 50 53
19 22 24 24 26 28 33 27 21 20 22 24 27 29 35 37 35 37 29 30 36 42 33 33 34 34 36 37 37 37 37 39 40 43 45 45 45 46 47 49 51 52 53
20 22 23 23 26 26 25 26 26 27 27 29 31 34 37 36 33 37 37 35 34 38 33 33 34 37 37 36 38 39 39 40 43 45 46 47 47 49 49 51 53 54 55
23 22 22 26 29 29 29 30 31 33 34 36 38 38 39 38 34 37 39 33 32 32 33 34 35 37 37 37 38 39 40 42 44 47 48 49 51 50 51 52 53 54 53
27 26 30 31 33 34 36 36 36 37 40 38 38 40 46 35 38 45 34 30 31 35 36 36 36 36 37 39 39 40 41 42 43 46 48 49 50 50 51 52 52 52 50
29 29 27 28 29 31 33 35 36 35 32 35 33 30 35 41 41 36 37 35 36 39 39 38 36 37 39 40 41 43 44 44 45 46 48 48 47 47 49 50 49 48 48
25 24 23 24 24 26 28 30 30 30 31 33 34 33 36 43 34 40 42 40 39 38 36 35 38 38 38 41 43 44 46 47 48 48 47 47 47 46 46 47 45 44 42
22 22 23 24 26 26 26 26 27 26 30 29 33 36 35 41 42 40 42 39 35 35 34 36 37 39 40 42 43 45 47 49 50 50 49 47 46 46 45 45 42 39 35
24 24 25 26 26 27 26 25 24 24 26 31 35 40 41 42 43 45 42 36 35 36 39 37 38 39 42 43 45 46 47 48 50 49 49 48 47 46 44 42 39 36 30
27 28 29 30 30 29 27 26 26 30 35 39 36 40 42 43 46 43 39 34 37 42 39 39 39 40 42 44 45 46 47 48 49 49 48 47 46 45 43 39 37 32 30
31 31 32 32 32 30 29 30 32 36 38 39 42 44 46 47 42 39 43 46 45 43 40 38 40 42 43 45 46 47 48 49 49 48 47 46 44 43 40 37 34 30 29
34 35 35 35 33 33 34 36 38 41 43 45 48 48 46 43 43 45 45 45 43 41 40 41 42 43 44 46 47 49 49 48 47 47 46 44 43 41 38 36 33 31 29
35 36 36 36 35 37 42 43 45 48 49 44 39 40 43 44 44 44 44 41 39 42 41 42 44 45 46 47 49 49 49 47 47 46 44 43 41 40 37 33 33 30 29
38 39 38 35 34 36 38 40 41 39 39 41 42 41 40 40 40 40 40 42 43 43 44 45 47 47 48 48 49 49 49 48 46 45 43 41 40 38 33 30 30 33 25
32 32 32 33 33 35 35 34 34 36 37 37 37 38 40 40 40 40 42 43 43 44 46 46 47 47 48 49 49 49 48 47 45 43 41 39 37 34 30 28 27 31 38
30 32 31 29 26 27 29 32 34 35 36 37 38 39 40 41 42 44 45 45 46 47 47 47 48 49 49 48 48 47 45 43 41 39 37 35 33 30 28 27 25 24 22
22 20 21 24 27 29 31 32 34 35 37 39 40 41 43 44 46 47 48 49 48 49 49 49 49 48 47 46 45 43 41 39 37 35 33 31 30 28 27 25 23 22 27
20 22 25 27 29 31 32 34 36 38 40 42 44 45 47 47 48 49 50 50 50 50 50 48 47 46 45 43 42 40 38 35 33 32 30 28 27 26 25 24 21 21 21
23 25 27 29 32 34 37 39 41 43 45 46 47 48 49 50 50 50 51 50 49 48 47 46 44 42 40 38 37 35 33 31 30 29 28 26 25 24 23 22 20 20 20
27 29 32 35 37 40 42 44 45 47 48 49 49 49 49 49 49 48 48 47 46 45 43 41 39 37 36 35 33 32 31 29 27 26 25 23 22 22 22 20 19 18 19
32 35 37 40 42 44 45 46 47 48 48 49 48 48 48 47 46 45 44 43 41 40 38 36 36 35 33 31 30 29 28 26 25 24 23 22 20 20 20 19 19 17 21
36 38 40 41 43 44 45 47 48 48 48 48 47 46 45 43 42 41 39 38 36 35 34 33 32 31 30 28 26 25 23 23 23 23 22 20 18 18 18 18 19 16 21
37 39 41 43 44 46 47 48 48 48 47 46 44 42 40 39 38 36 34 33 31 30 29 29 28 27 26 24 22 21 21 21 21 21 20 18 16 16 17 18 19 16 21
Wind_Direction
258 255 258 262 263 260 262 263 260 254 248 248 253 257 267 271 268 283 283 266 289 296 286 274 297 280 276 276 278 279 282 282 283 287 287 289 290 291 294 296 300 300 300
268 265 268 265 262 255 256 257 257 254 254 253 257 262 264 269 271 278 289 280 282 289 280 281 290 285 276 277 278 279 279 278 282 287 292 295 293 295 298 297 299 300 300
260 260 264 271 272 270 266 266 259 266 257 249 256 263 268 269 283 282 284 290 286 278 283 279 279 281 279 280 279 279 280 283 287 292 296 297 298 299 298 299 300 299 297
259 261 268 281 278 289 285 280 263 279 268 260 263 267 273 273 278 289 280 274 274 256 277 270 279 276 278 278 278 279 282 287 290 293 293 294 295 297 296 297 296 296 296
280 274 273 270 277 278 282 272 284 270 268 267 268 272 280 280 277 277 272 275 291 267 270 274 271 276 277 280 280 282 285 287 289 290 292 294 295 295 295 295 297 297 297
275 271 267 274 275 275 275 275 275 275 273 271 264 268 274 272 292 241 268 284 263 279 276 271 275 278 280 279 280 283 285 288 290 292 293 293 295 295 297 298 299 298 298
268 267 271 275 273 272 272 272 271 270 268 265 263 257 261 277 258 276 261 264 281 280 276 276 276 276 276 277 278 281 285 289 291 292 293 294 295 297 298 298 298 298 298
268 272 277 272 269 269 269 272 269 269 267 264 259 265 269 246 265 283 273 287 281 277 276 274 272 272 275 278 282 283 286 288 289 289 291 293 294 295 295 296 296 297 297
273 273 271 271 271 269 267 268 267 270 263 265 263 259 279 260 281 268 284 284 276 274 271 271 273 275 277 280 284 287 289 291 291 292 292 293 293 293 294 294 297 296 298
264 263 267 271 271 273 272 270 267 262 252 254 264 268 258 267 264 281 284 270 272 270 270 270 273 277 279 282 285 288 291 292 293 292 291 292 293 294 293 293 294 295 298
259 267 270 276 282 281 278 272 269 259 254 260 261 260 259 270 272 277 266 268 269 269 267 270 274 277 283 285 287 290 291 292 293 294 294 295 295 295 294 292 292 294 294
264 269 277 283 286 284 279 278 273 269 264 247 249 264 270 264 272 265 265 268 267 268 269 274 278 281 283 285 287 289 291 292 293 294 295 296 296 295 293 292 290 290 285
268 274 279 284 285 287 279 272 260 254 248 258 269 261 256 257 262 264 269 265 263 269 272 273 277 281 283 287 290 293 293 293 293 294 295 295 295 294 292 289 285 284 281
269 273 276 279 279 275 269 260 259 257 256 258 255 254 257 261 263 263 261 269 276 274 277 280 281 283 288 292 293 293 292 293 294 295 295 295 294 292 291 288 278 274 272
269 271 273 274 273 269 267 266 264 258 252 252 252 256 259 263 270 281 280 276 277 278 279 280 283 287 290 291 292 292 292 294 294 294 294 294 293 290 288 282 269 267 268
278 280 279 279 277 275 276 270 262 255 253 258 273 284 285 283 281 283 283 283 283 281 280 283 286 287 289 291 292 292 293 294 294 294 293 292 291 289 287 280 265 265 268
287 288 292 292 285 274 272 273 273 278 283 284 284 287 289 288 284 282 283 281 279 281 284 285 288 290 292 293 293 295 295 295 294 294 293 291 289 287 285 278 269 248 255
292 291 290 287 283 281 281 281 281 284 285 284 284 284 283 283 283 282 279 280 283 284 287 290 292 293 293 293 294 294 294 294 293 292 290 288 286 285 283 279 274 258 258
282 283 284 286 288 288 287 286 285 286 287 287 286 286 287 286 284 284 285 287 288 290 292 293 293 293 293 293 293 293 293 292 291 289 287 285 284 282 279 278 277 262 245
280 282 284 285 285 286 287 287 288 288 289 289 290 288 286 287 288 290 291 291 293 293 293 294 294 293 292 292 292 293 292 291 289 288 286 283 281 280 278 276 276 260 238
288 288 288 288 288 288 289 290 290 290 289 288 288 288 290 291 291 292 292 292 292 292 292 292 292 292 292 292 292 292 291 290 288 286 283 283 281 279 276 272 270 254 244
291 292 293 293 293 294 294 293 293 292 292 292 292 292 292 291 291 291 291 292 292 292 292 292 293 292 292 291 290 290 288 287 285 285 284 283 281 278 274 266 262 253 241
297 298 298 297 297 296 296 296 296 295 294 294 293 292 291 291 291 290 290 290 290 291 292 292 292 291 290 291 291 290 289 288 286 284 282 281 279 275 269 261 254 253 234
300 299 299 299 299 299 299 298 296 295 295 294 293 292 292 292 292 292 291 292 292 292 292 291 290 291 291 289 289 288 287 287 286 285 284 282 278 274 264 255 247 248 224
303 304 304 304 303 302 302 300 299 297 296 295 295 295 295 295 294 293 293 293 293 292 291 291 291 290 290 290 288 287 286 285 285 285 284 284 279 272 261 248 239 241 220
308 308 308 308 307 306 305 303 302 301 300 299 299 298 297 295 295 295 295 294 293 293 293 293 292 292 291 290 288 287 286 286 287 287 287 286 281 272 257 241 233 233 216